Weather History for Hagerstown, MD

Change the Weather History Date:

Monday, March 4, 2013

  Actual Average Record
Temperature  
Mean Temperature 32 °F -  
Max Temperature 39 °F 44 °F 60 °F (2008)
Min Temperature 25 °F 27 °F 6 °F (2014)
Degree Days  
Heating Degree Days 33    
Month to date heating degree days 127  
Moisture  
Dew Point 16 °F    
Average Humidity 57    
Maximum Humidity 69    
Minimum Humidity 44    
Precipitation  
Precipitation 0.00 in - - ()
Month to date precipitation T  
Year to date precipitation 4.23  
Sea Level Pressure  
Sea Level Pressure 30.02 in    
Wind  
Wind Speed 17 mph (NW)    
Max Wind Speed 28 mph    
Max Gust Speed 36 mph    
Visibility 10 miles    
Events      
Averages and records for this station are not official NWS values.
T = Trace of Precipitation, MM = Missing Value Source: NWS Daily Summary

Daily Weather History Graph

Daily Weather History Graph

Search for Another Location

Airport:

Trip Planner

Search our weather history database for the weather conditions in past years. The results will help you decide how hot, cold, wet, or windy it might be!

Date:

Astronomy

Mar. 04, 2013 Rise Set
Actual Time 6:39 AM EST 6:06 PM EST
Civil Twilight 6:12 AM EST 6:33 PM EST
Nautical Twilight 5:41 AM EST 7:04 PM EST
Astronomical Twilight 5:09 AM EST 7:36 PM EST
Moon 12:45 AM EST (3/4) 10:47 AM EST (3/4)
Length of Visible Light 12h 21m
Length of Day
11h 27m
Waning Gibbous, 52% of the Moon is Illuminated
Mar 4
Waning Gibbous
Mar 4
Last Quarter
Mar 11
New
Mar 19
First Quarter
Mar 27
Full

Hourly Weather History & Observations

Time (EST) Temp. Windchill Dew Point Humidity Pressure Visibility Wind Dir Wind Speed Gust Speed Precip Events Conditions
12:21 AM 28.4 °F 18.0 °F 19.4 °F 69% 29.91 in 10.0 mi NW 12.7 mph - N/A   Overcast
12:35 AM 28.4 °F 16.6 °F 17.6 °F 64% 29.91 in 10.0 mi NW 16.1 mph - N/A   Overcast
12:53 AM 28.0 °F 15.3 °F 16.0 °F 61% 29.97 in 10.0 mi NW 18.4 mph - N/A   Overcast
1:53 AM 27.0 °F 16.1 °F 16.0 °F 63% 29.98 in 10.0 mi NW 12.7 mph - N/A   Overcast
3:53 AM 25.0 °F 13.6 °F 14.0 °F 63% 29.99 in 10.0 mi WNW 12.7 mph - N/A   Partly Cloudy
4:53 AM 26.1 °F 14.0 °F 14.0 °F 60% 30.00 in 10.0 mi WNW 15.0 mph - N/A   Overcast
5:53 AM 25.0 °F 13.1 °F 14.0 °F 63% 30.01 in 10.0 mi WNW 13.8 mph - N/A   Mostly Cloudy
6:53 AM 25.0 °F 11.3 °F 12.9 °F 60% 30.02 in 10.0 mi NW 18.4 mph 26.5 mph N/A   Mostly Cloudy
7:53 AM 28.0 °F 17.5 °F 14.0 °F 56% 30.05 in 10.0 mi NW 12.7 mph - N/A   Overcast
8:53 AM 28.0 °F 15.7 °F 14.0 °F 56% 30.05 in 10.0 mi NW 17.3 mph 26.5 mph N/A   Mostly Cloudy
9:53 AM 30.0 °F 17.9 °F 15.1 °F 54% 30.06 in 10.0 mi WNW 18.4 mph - N/A   Overcast
10:53 AM 30.9 °F 18.7 °F 15.1 °F 52% 30.06 in 10.0 mi NW 19.6 mph 27.6 mph N/A   Overcast
11:53 AM 34.0 °F 22.4 °F 15.1 °F 46% 30.06 in 10.0 mi NW 20.7 mph 32.2 mph N/A   Mostly Cloudy
12:53 PM 35.1 °F 24.1 °F 16.0 °F 46% 30.02 in 10.0 mi WNW 19.6 mph 26.5 mph N/A   Clear
1:53 PM 37.9 °F 28.5 °F 17.1 °F 43% 30.01 in 10.0 mi NW 17.3 mph 24.2 mph N/A   Partly Cloudy
2:53 PM 37.9 °F 27.6 °F 17.1 °F 43% 30.00 in 10.0 mi NW 20.7 mph 27.6 mph N/A   Clear
3:53 PM 37.9 °F 28.2 °F 17.1 °F 43% 30.01 in 10.0 mi NW 18.4 mph 26.5 mph N/A   Clear
4:53 PM 37.0 °F 27.7 °F 16.0 °F 42% 30.02 in 10.0 mi WNW 16.1 mph - N/A   Clear
5:53 PM 35.1 °F 26.4 °F 16.0 °F 46% 30.03 in 10.0 mi NW 12.7 mph - N/A   Clear
6:53 PM 33.1 °F 27.7 °F 16.0 °F 50% 30.05 in 10.0 mi NW 5.8 mph - N/A   Clear
7:53 PM 30.9 °F 24.3 °F 17.1 °F 57% 30.06 in 10.0 mi WNW 6.9 mph - N/A   Clear
8:53 PM 33.1 °F 28.7 °F 17.1 °F 52% 30.07 in 10.0 mi NW 4.6 mph - N/A   Clear
9:53 PM 32.0 °F - 17.1 °F 54% 30.07 in 10.0 mi Calm Calm - N/A   Clear
10:53 PM 30.9 °F 22.2 °F 18.0 °F 59% 30.07 in 10.0 mi WNW 10.4 mph - N/A   Clear
11:53 PM 30.9 °F 22.2 °F 19.0 °F 61% 30.07 in 10.0 mi WNW 10.4 mph - N/A   Clear